SCP
0 0 0 0 0 0 0 0 0 0 0 0 0 0 0 0 0 0 0 0 0 0
0 0 0 0 0 0 0 0 0 0 0 0 0 0 0 0 0 0 0 0 0 0
0 0 0 0 0 0 0 0 0 0 0 0 0 0 0 0 0 0 0 0 0 0
0 0 0 0 0 0 0 0 0 0 0 0 0 0 0 0 0 0 0 0 0 0
-0 0 0 0 0 0 0 0 -0 0 0 0 0 0 0 0 0 0 0 0 0 0
0 0 0 0 0 0 0 0 0 0 0 0 0 0 0 0 0 0 0 0 0 0
0 0 0 0 0 0 0 0 0 0 0 0 0 0 0 0 0 0 0 0 0 0
0 0 0 0 0 0 -0 -0 -0 0 0 0 0 0 0 0 0 0 0 0 0 0
0 -0 -0 -0 0 -0 0 0 0 0 0 0 0 0 0 0 0 0 0 0 0 0
-0 -0 0 0 0 0 0 0 0 0 0 0 0 0 0 0 0 0 0 0 0 0
-0 -0 -0 0 0 0 0 0 0 0 0 0 0 0 0 0 0 0 0 0 0 0
-0 -0 -0 0 0 0 0 0 0 0 0 0 0 0 0 0 0 0 0 0 0 0
0 -0 -0 -0 0 0 0 0 0 0 0 0 0 0 0 0 0 0 0 0 0 0
0 0 0 0 0 0 0 0 0 0 0 0 0 0 0 0 0 0 0 0 0 0
Wind_Speed_500mb
29 33 39 45 51 57 64 70 69 69 69 68 65 65 65 70 73 73 75 75 74 76
23 24 25 27 32 37 42 49 56 60 64 65 65 64 65 68 71 70 70 72 72 72
31 32 34 35 36 37 39 41 43 46 50 53 55 56 58 62 65 67 70 72 76 72
35 33 33 35 40 45 47 50 49 46 45 49 53 54 55 58 60 65 68 67 72 75
45 45 43 41 43 45 48 50 54 57 55 51 48 47 51 56 58 61 63 66 69 71
44 46 47 49 50 51 53 55 58 59 60 58 55 52 51 51 53 58 62 63 66 67
50 53 57 58 59 59 62 66 68 69 67 64 62 59 57 57 54 56 59 59 60 61
53 53 55 58 62 65 67 67 70 70 67 64 62 61 60 59 58 58 60 60 59 63
54 57 59 58 59 61 63 65 68 69 70 69 66 65 65 63 61 57 56 59 63 65
56 57 57 56 55 56 58 60 61 62 61 62 61 65 65 62 55 52 50 50 48 51
66 64 60 58 56 50 49 50 51 50 52 52 52 55 54 49 44 43 40 37 35 36
62 62 60 56 52 52 49 45 43 42 39 39 40 43 45 41 33 30 29 29 29 29
56 56 53 51 46 42 42 40 37 35 34 34 36 37 34 28 25 22 20 19 18 18
49 47 45 42 42 39 35 32 30 31 30 30 31 34 36 31 25 24 27 28 29 31
Wind_Direction_500mb
318 308 300 296 292 289 287 287 288 288 287 287 284 282 280 279 278 276 275 273 270 266
7 355 346 334 325 315 307 299 293 289 286 285 283 281 279 278 277 277 276 276 272 269
343 339 336 333 332 328 324 317 308 301 293 289 286 284 281 278 277 276 276 276 270 272
320 317 314 318 324 325 324 321 318 311 301 294 289 287 285 282 280 277 275 277 274 275
316 309 304 303 311 318 319 320 318 314 310 304 295 290 286 285 285 282 279 278 276 273
329 323 315 312 313 316 316 316 316 317 311 305 299 294 288 283 284 283 281 281 279 277
331 326 321 319 316 313 312 311 309 310 308 306 303 301 297 292 285 282 279 280 282 279
331 327 322 316 311 308 307 305 305 305 304 303 299 297 295 293 291 284 278 276 273 273
324 322 320 316 311 308 306 303 300 300 302 302 300 294 290 288 288 287 283 277 276 277
319 318 315 313 311 310 307 305 305 305 305 303 300 296 294 291 288 286 284 281 278 275
323 321 321 321 321 317 315 313 312 312 311 308 304 300 298 297 298 291 287 285 279 273
321 321 323 324 325 326 326 327 326 323 320 316 314 315 315 313 307 297 291 286 280 274
322 323 325 327 330 333 334 336 336 335 332 328 325 333 351 343 323 307 295 291 287 281
321 323 325 329 331 335 338 340 338 335 334 330 332 335 336 338 341 336 316 303 297 299
Wind_Speed_850mb
29 33 39 45 51 57 64 70 69 69 69 68 65 65 65 70 73 73 75 75 74 76
23 24 25 27 32 37 42 49 56 60 64 65 65 64 65 68 71 70 70 72 72 72
31 32 34 35 36 37 39 41 43 46 50 53 55 56 58 62 65 67 70 72 76 72
35 33 33 35 40 45 47 50 49 46 45 49 53 54 55 58 60 65 68 67 72 75
45 45 43 41 43 45 48 50 54 57 55 51 48 47 51 56 58 61 63 66 69 71
44 46 47 49 50 51 53 55 58 59 60 58 55 52 51 51 53 58 62 63 66 67
50 53 57 58 59 59 62 66 68 69 67 64 62 59 57 57 54 56 59 59 60 61
53 53 55 58 62 65 67 67 70 70 67 64 62 61 60 59 58 58 60 60 59 63
54 57 59 58 59 61 63 65 68 69 70 69 66 65 65 63 61 57 56 59 63 65
56 57 57 56 55 56 58 60 61 62 61 62 61 65 65 62 55 52 50 50 48 51
66 64 60 58 56 50 49 50 51 50 52 52 52 55 54 49 44 43 40 37 35 36
62 62 60 56 52 52 49 45 43 42 39 39 40 43 45 41 33 30 29 29 29 29
56 56 53 51 46 42 42 40 37 35 34 34 36 37 34 28 25 22 20 19 18 18
49 47 45 42 42 39 35 32 30 31 30 30 31 34 36 31 25 24 27 28 29 31
Wind_Direction_850mb
318 308 300 296 292 289 287 287 288 288 287 287 284 282 280 279 278 276 275 273 270 266
7 355 346 334 325 315 307 299 293 289 286 285 283 281 279 278 277 277 276 276 272 269
343 339 336 333 332 328 324 317 308 301 293 289 286 284 281 278 277 276 276 276 270 272
320 317 314 318 324 325 324 321 318 311 301 294 289 287 285 282 280 277 275 277 274 275
316 309 304 303 311 318 319 320 318 314 310 304 295 290 286 285 285 282 279 278 276 273
329 323 315 312 313 316 316 316 316 317 311 305 299 294 288 283 284 283 281 281 279 277
331 326 321 319 316 313 312 311 309 310 308 306 303 301 297 292 285 282 279 280 282 279
331 327 322 316 311 308 307 305 305 305 304 303 299 297 295 293 291 284 278 276 273 273
324 322 320 316 311 308 306 303 300 300 302 302 300 294 290 288 288 287 283 277 276 277
319 318 315 313 311 310 307 305 305 305 305 303 300 296 294 291 288 286 284 281 278 275
323 321 321 321 321 317 315 313 312 312 311 308 304 300 298 297 298 291 287 285 279 273
321 321 323 324 325 326 326 327 326 323 320 316 314 315 315 313 307 297 291 286 280 274
322 323 325 327 330 333 334 336 336 335 332 328 325 333 351 343 323 307 295 291 287 281
321 323 325 329 331 335 338 340 338 335 334 330 332 335 336 338 341 336 316 303 297 299